RH
52 58 58 60 59 60 60 60 59 56 53 54 55 51 51 53 49 51 52 58 53 50
54 59 61 63 62 62 60 61 63 62 57 58 58 58 56 58 58 55 55 58 57 56
47 59 68 67 68 65 66 67 69 73 74 74 70 63 63 64 66 65 67 61 53 52
41 47 70 76 73 72 70 72 73 78 82 89 90 74 71 72 76 73 66 63 58 47
28 35 49 75 79 77 78 80 78 81 86 96 98 92 87 81 80 73 64 58 52 49
21 22 31 48 68 86 86 85 84 87 91 97 98 99 90 87 80 73 63 57 52 45
22 18 22 26 42 58 85 95 95 95 93 79 85 84 91 89 83 74 67 61 54 48
23 18 24 20 29 37 47 61 81 95 97 96 85 79 79 75 72 67 61 59 56 59
27 26 22 26 17 20 32 38 52 52 58 78 94 93 93 91 82 87 82 73 77 67
30 25 25 34 27 20 12 21 32 41 45 51 51 51 59 67 76 85 90 96 97 96
35 26 24 24 35 27 19 14 16 29 34 33 34 34 33 36 41 46 51 59 64 67
32 26 23 20 23 30 27 21 17 14 21 22 22 26 26 30 29 32 33 33 36 39
34 28 21 24 23 24 25 23 23 20 13 15 19 18 12 14 18 16 18 19 23 29
39 37 33 24 27 26 26 25 25 25 25 24 15 18 20 17 12 11 11 16 17 16